TimeCST,TemperatureF,Dew PointF,Humidity,Sea Level PressureIn,VisibilityMPH,Wind Direction,Wind SpeedMPH,Gust SpeedMPH,PrecipitationIn,Events,Conditions,WindDirDegrees,DateUTC
12:06 AM,-9.4,-14.8,77,30.25,10.0,Calm,Calm,-,N/A,,Clear,0,2012-12-27 06:06:00
12:26 AM,-9.4,-13.0,84,30.25,10.0,Calm,Calm,-,N/A,,Clear,0,2012-12-27 06:26:00
12:46 AM,-11.2,-14.8,84,30.24,10.0,Calm,Calm,-,N/A,,Clear,0,2012-12-27 06:46:00
1:06 AM,-9.4,-14.8,77,30.24,10.0,Calm,Calm,-,N/A,,Mostly Cloudy,0,2012-12-27 07:06:00
1:26 AM,-9.4,-13.0,84,30.24,10.0,Calm,Calm,-,N/A,,Overcast,0,2012-12-27 07:26:00
1:46 AM,-9.4,-13.0,84,30.25,10.0,Calm,Calm,-,N/A,,Mostly Cloudy,0,2012-12-27 07:46:00
2:06 AM,-9.4,-13.0,84,30.25,10.0,Calm,Calm,-,N/A,,Overcast,0,2012-12-27 08:06:00
2:26 AM,-9.4,-13.0,84,30.25,10.0,Calm,Calm,-,N/A,,Overcast,0,2012-12-27 08:26:00
2:46 AM,-9.4,-14.8,77,30.25,10.0,Calm,Calm,-,N/A,,Overcast,0,2012-12-27 08:46:00
3:06 AM,-9.4,-14.8,77,30.25,10.0,Calm,Calm,-,N/A,,Scattered Clouds,0,2012-12-27 09:06:00
3:46 AM,-5.8,-9.4,84,30.26,10.0,Calm,Calm,-,N/A,,Overcast,0,2012-12-27 09:46:00
4:07 AM,-5.8,-7.6,92,30.25,10.0,Calm,Calm,-,N/A,,Overcast,0,2012-12-27 10:07:00
4:26 AM,-4.0,-7.6,85,30.25,10.0,Calm,Calm,-,N/A,,Overcast,0,2012-12-27 10:26:00
4:46 AM,-2.2,-5.8,85,30.24,10.0,East,3.5,-,N/A,,Overcast,80,2012-12-27 10:46:00
5:07 AM,-2.2,-5.8,85,30.24,10.0,ENE,3.5,-,N/A,,Overcast,70,2012-12-27 11:07:00
5:26 AM,-2.2,-5.8,85,30.23,10.0,Calm,Calm,-,N/A,,Overcast,0,2012-12-27 11:26:00
5:46 AM,-2.2,-5.8,85,30.23,10.0,Calm,Calm,-,N/A,,Overcast,0,2012-12-27 11:46:00
6:07 AM,-0.4,-4.0,85,30.23,10.0,Calm,Calm,-,N/A,,Overcast,0,2012-12-27 12:07:00
6:26 AM,-0.4,-4.0,85,30.23,10.0,East,3.5,-,N/A,,Overcast,80,2012-12-27 12:26:00
6:46 AM,-0.4,-4.0,85,30.23,10.0,Calm,Calm,-,N/A,,Overcast,0,2012-12-27 12:46:00
7:06 AM,-0.4,-4.0,85,30.23,10.0,East,3.5,-,N/A,,Overcast,90,2012-12-27 13:06:00
7:26 AM,-0.4,-2.2,92,30.24,10.0,Calm,Calm,-,N/A,,Overcast,0,2012-12-27 13:26:00
7:47 AM,1.4,-2.2,85,30.24,10.0,East,3.5,-,N/A,,Overcast,90,2012-12-27 13:47:00
8:06 AM,1.4,-2.2,85,30.24,10.0,Calm,Calm,-,N/A,,Overcast,0,2012-12-27 14:06:00
8:26 AM,1.4,-2.2,85,30.24,10.0,Calm,Calm,-,N/A,,Overcast,0,2012-12-27 14:26:00
8:46 AM,1.4,-0.4,92,30.25,10.0,Calm,Calm,-,N/A,,Overcast,0,2012-12-27 14:46:00
9:06 AM,3.2,-0.4,85,30.24,10.0,ENE,3.5,-,N/A,,Overcast,70,2012-12-27 15:06:00
9:26 AM,3.2,1.4,92,30.24,10.0,ENE,3.5,-,N/A,,Overcast,70,2012-12-27 15:26:00
9:46 AM,5.0,1.4,85,30.24,10.0,ENE,3.5,-,N/A,,Overcast,60,2012-12-27 15:46:00
10:06 AM,6.8,3.2,85,30.24,10.0,NE,3.5,-,N/A,,Overcast,50,2012-12-27 16:06:00
10:46 AM,8.6,6.8,92,30.24,10.0,Calm,Calm,-,N/A,Snow,Light Snow,0,2012-12-27 16:46:00
11:06 AM,10.4,6.8,85,30.23,10.0,East,3.5,-,N/A,Snow,Light Snow,80,2012-12-27 17:06:00
11:26 AM,10.4,6.8,85,30.22,10.0,ENE,3.5,-,N/A,Snow,Light Snow,70,2012-12-27 17:26:00
11:46 AM,10.4,8.6,92,30.21,10.0,East,3.5,-,N/A,Snow,Light Snow,80,2012-12-27 17:46:00
12:06 PM,12.2,8.6,85,30.20,10.0,East,3.5,-,N/A,Snow,Light Snow,90,2012-12-27 18:06:00
12:26 PM,14.0,8.6,79,30.20,10.0,East,3.5,-,N/A,,Overcast,100,2012-12-27 18:26:00
12:46 PM,15.8,10.4,79,30.19,10.0,East,3.5,-,N/A,,Overcast,80,2012-12-27 18:46:00
1:06 PM,15.8,10.4,79,30.19,10.0,Calm,Calm,-,N/A,,Overcast,0,2012-12-27 19:06:00
1:26 PM,15.8,10.4,79,30.18,10.0,Calm,Calm,-,N/A,,Overcast,0,2012-12-27 19:26:00
1:46 PM,15.8,10.4,79,30.18,10.0,Calm,Calm,-,N/A,Snow,Light Snow,0,2012-12-27 19:46:00
2:06 PM,15.8,10.4,79,30.18,10.0,Calm,Calm,-,N/A,,Overcast,0,2012-12-27 20:06:00
2:27 PM,17.6,10.4,73,30.17,10.0,ENE,3.5,-,N/A,,Overcast,60,2012-12-27 20:27:00
2:46 PM,15.8,10.4,79,30.14,10.0,NE,3.5,-,N/A,,Overcast,40,2012-12-27 20:46:00
3:06 PM,15.8,10.4,79,30.17,10.0,East,3.5,-,N/A,,Overcast,80,2012-12-27 21:06:00
3:27 PM,15.8,10.4,79,30.17,10.0,East,3.5,-,N/A,,Overcast,90,2012-12-27 21:27:00
3:46 PM,15.8,10.4,79,30.18,10.0,East,3.5,-,N/A,,Overcast,100,2012-12-27 21:46:00
4:06 PM,15.8,10.4,79,30.17,10.0,East,3.5,-,N/A,,Overcast,90,2012-12-27 22:06:00
4:26 PM,14.0,10.4,86,30.18,10.0,Calm,Calm,-,N/A,,Overcast,0,2012-12-27 22:26:00
4:46 PM,14.0,10.4,86,30.17,10.0,ENE,4.6,-,N/A,,Overcast,60,2012-12-27 22:46:00
5:06 PM,12.2,10.4,92,30.17,10.0,ENE,4.6,-,N/A,,Overcast,70,2012-12-27 23:06:00
5:26 PM,12.2,10.4,92,30.17,10.0,East,3.5,-,N/A,,Overcast,80,2012-12-27 23:26:00
6:06 PM,12.2,10.4,92,30.16,10.0,East,4.6,-,N/A,,Overcast,80,2012-12-28 00:06:00
6:26 PM,12.2,10.4,92,30.16,10.0,ENE,5.8,-,N/A,,Overcast,70,2012-12-28 00:26:00
7:06 PM,12.2,10.4,92,30.16,10.0,East,4.6,-,N/A,,Overcast,80,2012-12-28 01:06:00
7:26 PM,12.2,10.4,92,30.16,10.0,ESE,4.6,-,N/A,,Overcast,110,2012-12-28 01:26:00
7:46 PM,12.2,10.4,92,30.16,10.0,ESE,3.5,-,N/A,,Overcast,110,2012-12-28 01:46:00
8:06 PM,12.2,10.4,92,30.16,10.0,Calm,Calm,-,N/A,,Overcast,0,2012-12-28 02:06:00
8:26 PM,12.2,10.4,92,30.15,10.0,East,3.5,-,N/A,,Overcast,100,2012-12-28 02:26:00
8:46 PM,12.2,8.6,85,30.15,10.0,East,3.5,-,N/A,,Overcast,100,2012-12-28 02:46:00
9:06 PM,10.4,8.6,92,30.14,10.0,Calm,Calm,-,N/A,,Overcast,0,2012-12-28 03:06:00
9:26 PM,10.4,8.6,92,30.14,10.0,Calm,Calm,-,N/A,,Overcast,0,2012-12-28 03:26:00
9:46 PM,10.4,6.8,85,30.14,10.0,Calm,Calm,-,N/A,,Overcast,0,2012-12-28 03:46:00
10:06 PM,8.6,6.8,92,30.14,10.0,Calm,Calm,-,N/A,,Overcast,0,2012-12-28 04:06:00
10:26 PM,8.6,6.8,92,30.14,10.0,Calm,Calm,-,N/A,,Overcast,0,2012-12-28 04:26:00
10:46 PM,8.6,6.8,92,30.14,10.0,East,3.5,-,N/A,,Overcast,80,2012-12-28 04:46:00
11:06 PM,8.6,6.8,92,30.14,10.0,Calm,Calm,-,N/A,,Overcast,0,2012-12-28 05:06:00
11:26 PM,8.6,6.8,92,30.14,10.0,Calm,Calm,-,N/A,,Overcast,0,2012-12-28 05:26:00
11:46 PM,8.6,6.8,92,30.14,7.0,Calm,Calm,-,N/A,Snow,Light Snow,0,2012-12-28 05:46:00